Overview Statistics Trail Chart Weather Telemetry Raw packets
 

This is the latest recevied weather packets stored in our database for station/object KJ6HT. If no packets are shown the sender has not sent any weather packets the latest 10 day(s).

<< 17 18 19 20 21 22 23 >>
Time Temp. Humidity Pressure Rain* Wind** Luminosity Snow
1788226244 27.22° C 43% 1009.7 hPa 0 mm - - -
1788225324 28.33° C 46% 1009.7 hPa 0 mm - - -
1788224478 28.89° C 45% 1009.8 hPa 0 mm - - -
1788223528 29.44° C 47% 1009.7 hPa 0 mm - - -
1788222665 30° C 46% 1009.8 hPa 0 mm - - -
1788221721 30° C 46% 1009.8 hPa 0 mm - - -
1788220869 30.56° C 44% 1009.7 hPa 0 mm - - -
1788219920 30.56° C 44% 1009.7 hPa 0 mm - - -
1788219059 31.11° C 41% 1009.6 hPa 0 mm - - -
1788218117 31.11° C 44% 1009.7 hPa 0 mm - - -
1788217294 31.11° C 45% 1009.6 hPa 0 mm - - -
1788216341 31.67° C 44% 1009.6 hPa 0 mm - - -
1788215425 31.67° C 44% 1009.7 hPa 0 mm - - -
1788214571 32.22° C 44% 1009.9 hPa 0 mm - - -
1788213664 32.22° C 41% 1010.1 hPa 0 mm - - -
1788212732 32.22° C 36% 1010.2 hPa 0 mm - - -
1788211891 32.78° C 38% 1010.5 hPa 0 mm - - -
1788210973 32.22° C 41% 1010.5 hPa 0 mm - - -
1788210025 32.22° C 41% 1010.8 hPa 0 mm - - -
1788209174 32.78° C 41% 1010.9 hPa 0 mm - - -
1788208266 32.22° C 43% 1010.9 hPa 0 mm - - -
1788207321 32.22° C 40% 1010.9 hPa 0 mm - - -
1788206464 32.22° C 41% 1011 hPa 0 mm - - -
1788205525 31.67° C 46% 1011 hPa 0 mm - - -
1788204662 31.11° C 47% 1011.2 hPa 0 mm - - -

* Rain latest hour (hover to see other rain measurements)
** Current wind speed in m/s (hover to see current wind gust speed)